Change the Weather History Date:

Saturday, March 9, 2013

  Actual Average Record
Temperature  
Mean Temperature 48 °F 52 °F  
Max Temperature 58 °F 66 °F 84 °F (1972)
Min Temperature 37 °F 39 °F 26 °F (1964)
Degree Days  
Heating Degree Days 17 13  
Month to date heating degree days 113 120  
Since 1 July heating degree days 2317 2365  
Cooling Degree Days 0 0  
Month to date cooling degree days 0 0  
Year to date cooling degree days 0 0  
Moisture  
Dew Point 32 °F    
Average Humidity 58    
Maximum Humidity 79    
Minimum Humidity 36    
Precipitation  
Precipitation 0.00 in 0.05 in 0.14 in (2010)
Month to date precipitation 0.25 0.60  
Year to date precipitation 0.71 3.89  
Since 1 July precipitation 1.00  
Snow  
Snow 0.00 in - T in (1962)
Month to date snowfall 0.0  
Since 1 July snowfall 0.0  
Snow Depth 0.00 in    
Sea Level Pressure  
Sea Level Pressure 30.11 in    
Wind  
Wind Speed 13 mph (West)    
Max Wind Speed 24 mph    
Max Gust Speed 31 mph    
Visibility 10 miles    
Events      
T = Trace of Precipitation, MM = Missing Value Source: NWS Daily Summary

Daily Weather History Graph

Daily Weather History Graph

Search for Another Location

Airport or City:

Trip Planner

Search our weather history database for the weather conditions in past years. The results will help you decide how hot, cold, wet, or windy it might be!

Date:

Astronomy

Mar. 09, 2013 Rise Set
Actual Time 6:10 AM PST 5:55 PM PST
Civil Twilight 5:45 AM PST 6:20 PM PST
Nautical Twilight 5:16 AM PST 6:49 PM PST
Astronomical Twilight 4:47 AM PST 7:19 PM PST
Moon 4:33 AM PST (3/9) 4:05 PM PST (3/9)
Length of Visible Light 12h 35m
Length of Day
11h 44m
Waning Crescent, 5% of the Moon is Illuminated
Mar 9
Waning Crescent
Mar 11
New
Mar 19
First Quarter
Mar 27
Full
Apr 2
Last Quarter

Hourly Weather History & Observations

Time (PST) Temp. Windchill Dew Point Humidity Pressure Visibility Wind Dir Wind Speed Gust Speed Precip Events Conditions
12:53 AM 42.1 °F 35.2 °F 34.0 °F 73% 29.99 in 10.0 mi West 12.7 mph - N/A   Partly Cloudy
1:53 AM 42.1 °F 35.2 °F 34.0 °F 73% 29.99 in 10.0 mi West 12.7 mph - N/A   Overcast
2:53 AM 41.0 °F 35.8 °F 34.0 °F 76% 29.99 in 10.0 mi WSW 8.1 mph - N/A   Clear
3:53 AM 39.2 °F 33.0 °F 33.8 °F 81% 30.00 in 10.0 mi WSW 9.2 mph - N/A   Clear
4:53 AM 39.0 °F 31.4 °F 32.0 °F 76% 30.03 in 10.0 mi West 12.7 mph - N/A   Clear
5:53 AM 39.0 °F 31.4 °F 30.9 °F 73% 30.05 in 10.0 mi West 12.7 mph - N/A   Clear
6:53 AM 39.9 °F 33.4 °F 33.1 °F 77% 30.06 in 10.0 mi West 10.4 mph - N/A   Clear
7:53 AM 44.1 °F 38.6 °F 33.1 °F 65% 30.08 in 10.0 mi West 10.4 mph - N/A   Clear
8:53 AM 46.9 °F - 33.1 °F 59% 30.10 in 10.0 mi WNW 19.6 mph - N/A   Clear
9:53 AM 48.9 °F - 33.1 °F 54% 30.11 in 10.0 mi WNW 18.4 mph - N/A   Clear
10:53 AM 53.1 °F - 33.1 °F 47% 30.11 in 10.0 mi NW 13.8 mph 23.0 mph N/A   Clear
11:53 AM 55.0 °F - 32.0 °F 42% 30.10 in 10.0 mi NNW 12.7 mph 20.7 mph N/A   Clear
12:53 PM 57.0 °F - 30.9 °F 37% 30.09 in 10.0 mi WNW 12.7 mph 23.0 mph N/A   Clear
1:53 PM 57.0 °F - 32.0 °F 39% 30.09 in 10.0 mi WNW 23.0 mph - N/A   Clear
2:53 PM 55.9 °F - 30.9 °F 39% 30.11 in 10.0 mi West 20.7 mph 27.6 mph N/A   Clear
3:53 PM 54.0 °F - 30.9 °F 41% 30.12 in 10.0 mi WNW 23.0 mph - N/A   Clear
4:53 PM 51.1 °F - 32.0 °F 48% 30.15 in 10.0 mi WNW 20.7 mph - N/A   Clear
5:53 PM 46.9 °F - 32.0 °F 56% 30.18 in 10.0 mi WNW 21.9 mph - N/A   Clear
6:53 PM 46.0 °F 39.9 °F 30.9 °F 56% 30.20 in 10.0 mi WNW 13.8 mph - N/A   Clear
7:53 PM 45.0 °F 43.5 °F 30.0 °F 56% 30.21 in 10.0 mi SSE 3.5 mph - N/A   Clear
8:53 PM 43.0 °F 40.3 °F 30.9 °F 62% 30.22 in 10.0 mi SSW 4.6 mph - N/A   Clear
9:53 PM 39.9 °F 35.8 °F 32.0 °F 73% 30.24 in 10.0 mi SSW 5.8 mph - N/A   Clear
10:53 PM 39.0 °F 33.4 °F 30.9 °F 73% 30.24 in 10.0 mi SSW 8.1 mph - N/A   Clear
11:53 PM 37.0 °F 32.4 °F 30.0 °F 76% 30.25 in 10.0 mi SSW 5.8 mph - N/A   Clear